• în Republica Moldova
  • Lista ţărilor
  • Pe 7 zile
  • Temperatura apei
  • Hartă satelitară
  • Meteo pe hartă
  • Widget-uri
  • user-avatar
    Intrare

    Meteo pe oră la Perth

    Astăzi, 24 Iulie, Luni

    Timp Temperatura Precipitaţii Vânt Presiune Umiditate
    00:00 +13°C° 0 mm 3 m/s 762 mmHg 82%
    01:00 +14°C° 0 mm 2 m/s 762 mmHg 81%
    02:00 +13°C° 0 mm 2 m/s 762 mmHg 81%
    03:00 +13°C° 0 mm 2 m/s 762 mmHg 81%
    04:00 +13°C° 0 mm 2 m/s 762 mmHg 81%
    05:00 +13°C° 0 mm 2 m/s 762 mmHg 81%
    06:00 +13°C° 0,1 mm 2 m/s 762 mmHg 81%
    07:00 +13°C° 0,1 mm 2 m/s 762 mmHg 81%
    08:00 +13°C° 0 mm 2 m/s 763 mmHg 83%
    09:00 +13°C° 0,1 mm 3 m/s 763 mmHg 79%
    10:00 +16°C° 0,1 mm 3 m/s 762 mmHg 75%
    11:00 +17°C° 0,1 mm 4 m/s 762 mmHg 71%
    12:00 +17°C° 0,3 mm 4 m/s 762 mmHg 68%
    13:00 +17°C° 0,3 mm 5 m/s 762 mmHg 66%
    14:00 +17°C° 0,3 mm 6 m/s 762 mmHg 64%
    15:00 +16°C° 0,2 mm 5 m/s 762 mmHg 66%
    16:00 +16°C° 0,2 mm 5 m/s 762 mmHg 69%
    17:00 +15°C° 0,2 mm 4 m/s 762 mmHg 72%
    18:00 +14°C° 0 mm 4 m/s 763 mmHg 75%
    19:00 +13°C° 0 mm 3 m/s 763 mmHg 78%
    20:00 +12°C° 0 mm 3 m/s 763 mmHg 81%
    21:00 +12°C° 0 mm 3 m/s 764 mmHg 81%
    22:00 +13°C° 0 mm 2 m/s 764 mmHg 82%
    23:00 +13°C° 0 mm 2 m/s 764 mmHg 82%

    Mâine, 25 Iulie, Marţi

    Timp Temperatura Precipitaţii Vânt Presiune Umiditate
    00:00 +13°C° 0 mm 2 m/s 764 mmHg 82%
    01:00 +13°C° 0 mm 2 m/s 764 mmHg 82%
    02:00 +14°C° 0 mm 2 m/s 764 mmHg 82%
    03:00 +14°C° 0,1 mm 2 m/s 764 mmHg 82%
    04:00 +14°C° 0,1 mm 2 m/s 764 mmHg 83%
    05:00 +14°C° 0,1 mm 2 m/s 763 mmHg 83%
    06:00 +12°C° 0,1 mm 3 m/s 764 mmHg 84%
    07:00 +12°C° 0,1 mm 3 m/s 764 mmHg 85%
    08:00 +12°C° 0,1 mm 3 m/s 764 mmHg 86%
    09:00 +14°C° 0 mm 3 m/s 764 mmHg 79%
    10:00 +15°C° 0 mm 4 m/s 764 mmHg 72%
    11:00 +18°C° 0 mm 4 m/s 764 mmHg 65%
    12:00 +19°C° 0,1 mm 4 m/s 764 mmHg 62%
    13:00 +19°C° 0,1 mm 5 m/s 763 mmHg 60%
    14:00 +20°C° 0,1 mm 5 m/s 762 mmHg 57%
    15:00 +19°C° 0,1 mm 4 m/s 762 mmHg 61%
    16:00 +18°C° 0,1 mm 4 m/s 762 mmHg 66%
    17:00 +18°C° 0,1 mm 4 m/s 762 mmHg 70%
    18:00 +17°C° 0 mm 4 m/s 762 mmHg 73%
    19:00 +15°C° 0 mm 4 m/s 762 mmHg 77%
    20:00 +14°C° 0 mm 4 m/s 763 mmHg 81%
    21:00 +14°C° 0,1 mm 4 m/s 762 mmHg 83%
    22:00 +14°C° 0,1 mm 4 m/s 762 mmHg 84%
    23:00 +13°C° 0,1 mm 4 m/s 762 mmHg 86%

    Poimâine, 26 Iulie, Miercuri

    Timp Temperatura Precipitaţii Vânt Presiune Umiditate
    00:00 +13°C° 0 mm 4 m/s 762 mmHg 87%
    01:00 +13°C° 0 mm 4 m/s 762 mmHg 87%
    02:00 +13°C° 0 mm 4 m/s 761 mmHg 88%
    03:00 +13°C° 0,1 mm 4 m/s 761 mmHg 88%
    04:00 +13°C° 0,1 mm 4 m/s 761 mmHg 89%
    05:00 +13°C° 0,1 mm 5 m/s 761 mmHg 89%
    06:00 +13°C° 0,3 mm 5 m/s 761 mmHg 89%
    07:00 +14°C° 0,3 mm 5 m/s 761 mmHg 88%
    08:00 +14°C° 0,3 mm 5 m/s 761 mmHg 87%
    09:00 +15°C° 0,9 mm 6 m/s 761 mmHg 87%
    10:00 +16°C° 0,9 mm 6 m/s 761 mmHg 86%
    11:00 +17°C° 0,9 mm 7 m/s 761 mmHg 86%
    12:00 +17°C° 1,1 mm 6 m/s 761 mmHg 84%
    13:00 +17°C° 1,1 mm 6 m/s 760 mmHg 82%
    14:00 +19°C° 1,1 mm 6 m/s 760 mmHg 81%
    15:00 +17°C° 0,1 mm 5 m/s 760 mmHg 80%
    16:00 +17°C° 0,1 mm 5 m/s 760 mmHg 79%
    17:00 +18°C° 0,1 mm 4 m/s 761 mmHg 78%
    18:00 +17°C° 0 mm 4 m/s 761 mmHg 80%
    19:00 +16°C° 0 mm 3 m/s 762 mmHg 82%
    20:00 +14°C° 0 mm 3 m/s 762 mmHg 84%
    21:00 +14°C° 0 mm 2 m/s 762 mmHg 84%
    22:00 +14°C° 0 mm 1 m/s 763 mmHg 84%
    23:00 +14°C° 0 mm 1 m/s 763 mmHg 84%

    27 Iulie, Joi

    Timp Temperatura Precipitaţii Vânt Presiune Umiditate
    00:00 +13°C° 0 mm 1 m/s 762 mmHg 86%
    01:00 +13°C° 0 mm 1 m/s 762 mmHg 87%
    02:00 +13°C° 0 mm 2 m/s 762 mmHg 88%
    03:00 +13°C° 0 mm 2 m/s 761 mmHg 89%
    04:00 +12°C° 0 mm 3 m/s 761 mmHg 90%
    05:00 +12°C° 0 mm 3 m/s 760 mmHg 91%
    06:00 +12°C° 0 mm 4 m/s 760 mmHg 91%
    07:00 +12°C° 0 mm 5 m/s 760 mmHg 91%
    08:00 +13°C° 0 mm 5 m/s 760 mmHg 91%
    09:00 +15°C° 0,1 mm 6 m/s 759 mmHg 86%
    10:00 +17°C° 0,1 mm 7 m/s 759 mmHg 81%
    11:00 +20°C° 0,1 mm 8 m/s 759 mmHg 76%
    12:00 +20°C° 0,9 mm 8 m/s 758 mmHg 78%
    13:00 +18°C° 0,9 mm 9 m/s 757 mmHg 81%
    14:00 +18°C° 0,9 mm 9 m/s 756 mmHg 84%
    15:00 +18°C° 1,2 mm 9 m/s 756 mmHg 84%
    16:00 +18°C° 1,2 mm 9 m/s 756 mmHg 83%
    17:00 +18°C° 1,2 mm 9 m/s 755 mmHg 83%
    18:00 +18°C° 1 mm 9 m/s 755 mmHg 84%
    19:00 +17°C° 1 mm 9 m/s 755 mmHg 85%
    20:00 +17°C° 1 mm 9 m/s 755 mmHg 86%
    21:00 +17°C° 0,4 mm 9 m/s 755 mmHg 86%
    22:00 +17°C° 0,4 mm 9 m/s 755 mmHg 85%
    23:00 +17°C° 0,4 mm 9 m/s 755 mmHg 84%

    28 Iulie, Vineri

    Timp Temperatura Precipitaţii Vânt Presiune Umiditate
    00:00 +17°C° 2,4 mm 9 m/s 754 mmHg 86%
    01:00 +17°C° 2,4 mm 9 m/s 754 mmHg 87%
    02:00 +16°C° 2,4 mm 9 m/s 753 mmHg 89%
    03:00 +16°C° 1,5 mm 9 m/s 753 mmHg 87%
    04:00 +16°C° 1,5 mm 9 m/s 753 mmHg 85%
    05:00 +16°C° 1,5 mm 9 m/s 753 mmHg 83%
    06:00 +15°C° 0,2 mm 9 m/s 754 mmHg 82%
    07:00 +15°C° 0,2 mm 9 m/s 754 mmHg 80%
    08:00 +15°C° 0,2 mm 8 m/s 755 mmHg 79%
    09:00 +15°C° 0,3 mm 9 m/s 755 mmHg 77%
    10:00 +15°C° 0,3 mm 9 m/s 756 mmHg 76%
    11:00 +13°C° 0,3 mm 10 m/s 756 mmHg 74%
    12:00 +14°C° 0,2 mm 10 m/s 756 mmHg 70%
    13:00 +14°C° 0,2 mm 10 m/s 756 mmHg 66%
    14:00 +14°C° 0,2 mm 10 m/s 756 mmHg 61%
    15:00 +13°C° 0,3 mm 9 m/s 757 mmHg 64%
    16:00 +13°C° 0,3 mm 8 m/s 757 mmHg 67%
    17:00 +12°C° 0,3 mm 7 m/s 758 mmHg 70%
    18:00 +11°C° 0,3 mm 7 m/s 758 mmHg 73%
    19:00 +11°C° 0,3 mm 7 m/s 759 mmHg 76%
    20:00 +10°C° 0,3 mm 6 m/s 760 mmHg 79%
    21:00 +10°C° 0,4 mm 7 m/s 760 mmHg 79%
    22:00 +10°C° 0,4 mm 7 m/s 761 mmHg 79%
    23:00 +9°C° 0,4 mm 7 m/s 761 mmHg 79%

    29 Iulie, Sâmbătă

    Timp Temperatura Precipitaţii Vânt Presiune Umiditate
    00:00 +9°C° 0,2 mm 7 m/s 761 mmHg 79%
    01:00 +9°C° 0,2 mm 6 m/s 762 mmHg 79%
    02:00 +9°C° 0,2 mm 6 m/s 762 mmHg 79%
    03:00 +9°C° 0,1 mm 6 m/s 763 mmHg 79%
    04:00 +8°C° 0,1 mm 6 m/s 763 mmHg 79%
    05:00 +8°C° 0,1 mm 6 m/s 764 mmHg 80%
    06:00 +8°C° 0,1 mm 5 m/s 764 mmHg 80%
    07:00 +9°C° 0,1 mm 5 m/s 765 mmHg 80%
    08:00 +10°C° 0,1 mm 4 m/s 766 mmHg 80%
    09:00 +11°C° 0,1 mm 4 m/s 766 mmHg 75%
    10:00 +12°C° 0,1 mm 4 m/s 766 mmHg 70%
    11:00 +13°C° 0,1 mm 4 m/s 767 mmHg 65%
    12:00 +14°C° 0,1 mm 4 m/s 766 mmHg 63%
    13:00 +14°C° 0,1 mm 5 m/s 766 mmHg 61%
    14:00 +15°C° 0,1 mm 5 m/s 766 mmHg 59%
    15:00 +14°C° 0,1 mm 4 m/s 766 mmHg 62%
    16:00 +14°C° 0,1 mm 4 m/s 767 mmHg 65%
    17:00 +13°C° 0,1 mm 4 m/s 767 mmHg 68%
    18:00 +12°C° 0,1 mm 3 m/s 767 mmHg 72%
    19:00 +12°C° 0,1 mm 3 m/s 768 mmHg 75%
    20:00 +12°C° 0,1 mm 2 m/s 768 mmHg 79%
    21:00 +12°C° 0 mm 2 m/s 768 mmHg 79%
    22:00 +12°C° 0 mm 2 m/s 768 mmHg 79%
    23:00 +12°C° 0 mm 1 m/s 768 mmHg 78%
    Arată mai mult